Wind_Speed
122 115 114 107 105 101 98 94 85 75 68 64 61 59 51 48 51 41 40 44 41 42 39 33 32 35 28 28 27 22 23 23
107 108 105 104 103 98 94 86 78 73 68 66 63 64 60 53 50 47 41 41 40 46 46 43 37 34 37 40 35 30 24 24
107 104 103 102 96 91 89 85 78 74 72 71 68 65 65 63 58 53 44 43 41 44 43 45 45 39 41 39 32 35 32 26
106 103 99 96 95 98 96 91 86 81 78 75 76 74 71 70 68 56 53 43 46 45 50 45 41 45 41 30 30 35 35 32
100 102 103 102 103 101 97 97 94 92 90 87 85 83 81 76 73 66 63 52 65 52 53 52 37 36 36 32 31 34 34 32
106 107 107 109 107 108 105 104 105 105 105 99 96 92 87 81 77 75 71 62 60 52 65 53 38 25 32 30 29 31 29 21
106 109 109 106 105 104 105 103 105 105 105 101 97 102 100 95 89 84 80 74 71 83 58 86 53 46 36 36 33 38 26 16
104 104 106 105 101 102 100 99 94 97 96 99 95 93 93 94 91 90 95 86 78 71 60 62 65 71 49 35 40 40 40 24
96 93 92 88 81 77 78 75 74 76 80 81 82 75 86 93 88 89 90 88 83 78 81 78 79 72 65 51 40 44 44 32
82 78 76 69 64 62 61 61 58 65 68 67 65 62 74 85 92 93 97 90 86 81 95 74 76 63 56 70 55 53 46 45
69 66 63 59 56 55 55 54 51 53 54 55 56 58 65 80 94 100 111 98 92 83 95 85 71 83 83 84 64 58 53 48
58 56 54 50 48 48 49 47 46 43 44 47 49 54 65 78 89 104 120 109 96 97 88 87 80 65 79 73 60 62 57 57
47 47 45 44 41 44 41 38 37 35 38 39 43 52 61 73 82 98 120 112 105 112 105 93 87 89 68 61 65 72 54 59
42 41 37 39 36 37 35 32 32 33 29 33 37 44 56 70 81 104 122 120 124 117 112 101 90 96 96 99 88 80 66 52
34 37 35 34 30 30 29 29 28 29 27 30 34 42 57 69 82 109 120 129 125 114 113 110 98 103 89 77 93 74 72 59
36 33 33 29 28 26 28 28 27 27 27 31 35 46 58 69 84 115 127 125 119 112 117 114 105 99 92 82 72 83 72 80
26 31 33 31 30 27 28 28 27 27 29 34 38 49 62 74 91 109 126 121 122 123 119 111 109 98 101 94 90 86 84 86
24 19 28 32 30 28 28 28 28 29 31 37 42 51 62 73 97 120 128 126 121 118 115 108 102 100 107 98 95 93 101 94
26 22 20 22 30 30 31 30 31 32 34 38 44 53 63 75 95 116 131 126 122 120 116 108 103 103 104 103 111 106 99 97
Wind_Direction
287 289 289 287 288 287 286 284 282 278 275 275 275 273 267 267 259 261 263 259 272 278 285 265 272 280 284 291 298 289 282 270
287 286 284 285 284 281 280 277 275 272 272 272 270 266 262 261 259 258 261 252 257 268 281 274 289 286 272 284 297 292 269 270
284 283 283 283 280 279 279 276 274 271 270 269 266 261 258 260 258 261 254 247 251 259 269 270 278 293 278 279 292 287 281 272
283 282 281 277 276 277 276 271 268 267 264 261 261 257 256 259 261 256 253 243 245 246 255 256 270 281 275 276 280 281 277 274
281 280 279 279 278 278 277 276 274 272 269 265 261 258 257 254 253 250 247 237 218 237 254 246 263 268 262 272 273 279 277 274
283 282 281 280 280 279 277 275 272 269 267 263 260 258 255 253 249 250 244 232 222 231 247 241 256 245 252 262 259 274 267 264
282 281 279 279 280 278 276 273 271 267 264 260 255 254 252 249 247 246 246 242 214 221 221 240 241 252 257 250 252 259 257 233
281 281 279 278 277 276 274 270 266 264 261 259 252 246 243 241 238 238 242 237 230 217 208 217 236 247 249 247 237 253 255 242
284 281 280 279 277 275 270 268 267 263 260 258 255 244 235 231 227 226 224 223 228 225 206 199 218 234 240 247 240 253 242 245
285 285 284 285 282 279 276 271 263 261 259 254 249 238 228 223 215 211 200 209 218 206 205 202 208 215 231 249 243 247 239 240
287 286 285 286 284 280 276 273 266 260 257 252 242 234 222 217 209 201 191 197 198 199 203 206 212 207 206 229 240 234 238 229
286 286 285 283 281 276 274 275 270 262 254 245 236 226 213 213 207 200 187 195 198 192 194 202 202 208 214 230 227 231 237 233
289 285 285 280 275 275 276 272 270 261 251 241 231 221 211 210 207 198 189 193 187 188 194 196 202 206 204 206 229 228 227 229
291 289 280 277 274 274 274 271 266 259 244 234 225 218 207 206 202 192 186 184 185 187 193 193 196 200 200 208 221 215 224 224
301 284 272 273 267 268 266 265 258 252 238 223 215 207 201 201 197 189 185 182 183 188 194 193 197 197 199 204 204 215 213 222
294 286 271 265 261 256 258 260 253 243 228 216 204 199 196 196 196 187 186 184 182 186 192 199 200 199 204 203 204 213 218 218
292 319 292 268 256 249 246 248 244 233 219 207 195 194 194 193 192 188 188 184 184 188 192 195 200 204 210 213 210 207 212 215
278 297 310 280 260 249 238 240 238 232 219 206 196 195 194 192 193 185 185 189 187 191 195 197 199 204 211 213 209 211 211 214
284 273 283 288 266 253 238 228 234 229 221 213 201 197 195 192 189 189 190 192 194 196 197 198 200 206 212 214 210 210 210 214
Height
10633 10631 10630 10627 10626 10625 10625 10628 10634 10638 10644 10654 10659 10666 10675 10681 10684 10691 10696 10702 10706 10708 10711 10716 10718 10720 10721 10719 10720 10720 10720 10721
10603 10602 10599 10597 10597 10596 10600 10603 10609 10616 10622 10632 10641 10646 10654 10664 10671 10677 10683 10688 10695 10699 10702 10708 10712 10715 10714 10713 10715 10714 10714 10715
10576 10574 10572 10569 10564 10565 10568 10573 10582 10592 10601 10607 10618 10628 10634 10641 10655 10664 10670 10676 10683 10686 10690 10694 10701 10705 10709 10708 10708 10707 10707 10709
10541 10539 10542 10542 10542 10540 10541 10547 10553 10563 10575 10587 10593 10603 10615 10623 10630 10646 10655 10661 10677 10674 10675 10679 10686 10692 10699 10702 10702 10699 10699 10702
10517 10510 10505 10507 10510 10511 10512 10513 10519 10526 10538 10550 10562 10575 10588 10601 10609 10623 10633 10649 10681 10667 10667 10669 10674 10680 10686 10692 10694 10693 10692 10695
10486 10482 10478 10472 10474 10472 10478 10484 10486 10487 10493 10513 10527 10539 10555 10570 10583 10592 10605 10624 10631 10639 10656 10663 10666 10671 10674 10681 10686 10686 10685 10686
10457 10450 10443 10440 10440 10437 10435 10443 10440 10443 10447 10462 10488 10502 10519 10538 10554 10563 10577 10593 10617 10631 10640 10654 10661 10663 10667 10671 10675 10679 10679 10679
10422 10420 10413 10409 10410 10403 10400 10398 10404 10400 10407 10413 10434 10460 10475 10496 10520 10537 10546 10558 10578 10598 10616 10637 10638 10657 10661 10662 10663 10669 10673 10673
10388 10383 10377 10374 10376 10374 10368 10370 10371 10368 10369 10375 10387 10415 10431 10452 10483 10505 10516 10526 10550 10568 10590 10615 10637 10644 10650 10654 10655 10660 10661 10665
10359 10354 10349 10348 10347 10345 10343 10341 10346 10340 10341 10349 10359 10377 10390 10407 10439 10465 10488 10505 10528 10545 10571 10595 10613 10621 10630 10640 10647 10651 10651 10656
10339 10334 10332 10330 10327 10323 10320 10321 10322 10321 10323 10327 10333 10349 10362 10375 10402 10431 10456 10481 10504 10528 10553 10571 10585 10599 10613 10622 10632 10636 10641 10644
10323 10318 10315 10313 10311 10306 10304 10305 10303 10305 10305 10308 10316 10326 10338 10353 10374 10402 10430 10456 10483 10503 10529 10549 10563 10573 10589 10595 10609 10624 10631 10633
10310 10306 10303 10299 10297 10294 10295 10293 10291 10291 10292 10295 10301 10309 10322 10336 10354 10380 10409 10431 10454 10480 10508 10527 10542 10558 10566 10581 10593 10606 10618 10621
10298 10295 10292 10288 10287 10285 10284 10283 10281 10279 10284 10287 10291 10301 10311 10322 10338 10362 10388 10412 10436 10462 10485 10510 10521 10537 10553 10565 10579 10591 10603 10607
10287 10284 10282 10280 10280 10277 10275 10275 10275 10273 10276 10280 10285 10294 10305 10316 10331 10355 10380 10400 10417 10444 10471 10490 10503 10525 10537 10546 10554 10572 10583 10593
10279 10276 10274 10274 10273 10270 10268 10270 10269 10269 10271 10274 10282 10289 10297 10310 10327 10349 10371 10390 10407 10431 10452 10468 10488 10505 10518 10531 10544 10557 10566 10578
10271 10269 10268 10266 10265 10264 10264 10265 10265 10266 10269 10272 10278 10287 10293 10299 10319 10354 10375 10391 10399 10412 10430 10454 10476 10491 10504 10514 10530 10534 10545 10556
10262 10260 10262 10263 10261 10261 10262 10264 10263 10265 10269 10271 10276 10283 10292 10303 10314 10329 10359 10370 10386 10406 10422 10441 10460 10477 10486 10496 10507 10515 10519 10533
10257 10254 10252 10254 10255 10255 10257 10261 10262 10262 10266 10270 10276 10283 10289 10298 10308 10333 10346 10361 10380 10393 10411 10429 10445 10459 10469 10479 10484 10490 10504 10516